Starlink 2448

operational
NORAD ID: 48111 Int'l Des: 2021-027 Owner: SPXS Country: US Constellation: starlink
LEOCIRCULARSTARLINK_TYPE

Über Starlink 2448

Beschreibung wird geladen...

Live-Position

3D-Globus wird geladen...

Nächste Überflüge

Höhenverlauf

Altitude vs Time

uPlot chart will show altitude changes over time

Zweizeiliger Elementsatz

1 48111U 21027V 25298.74472455 .00001459 00000-0 11681-3 0 9990
2 48111 53.0564 47.3786 0001088 85.2639 274.8474 15.06409382252222
Epoch: 25. Okt. 2025 • Age: 14 hours

Aktueller Status

Höhe 558.2 km
Geschwindigkeit 7.58 km/s
Subsatellitenpunkt -33.60°S, 140.19°W
Startdatum 7. Apr. 2021
Alter 4.5 years
Typ internet

Technische Details

Klassifizierung Payload
Masse 260.00 kg
Trockenmasse 248.00 kg
Gesamtmasse 260.00 kg
Länge 0.20 m
Durchmesser 2.80 m
Spannweite 9.00 m
Form Box + pan
Hersteller SPXS
Bus-Typ Starlink
Phasenstatus In Orbit
Besitzer/Staat SPXS/US

Große Konstellationen

Loading constellations...